Zurück zum Katalog

STARLINK-36816

AktivKommunikationSSO
NORAD 67891·PAYLOAD·🇺🇸 United States

Gestartet Feb 21, 2026 von Vandenberg Space Force Base

Loading…

Nächste Überflüge (nächste 24 Stunden)

TLE

AktuellSource: CelesTrak SupGP

Epoche: Sep 15, 2026, 02:47 UTC

1 67891C 26035N   26258.11645833  .00071967  00000+0  22344-2 0  2585
2 67891  97.2845 189.0478 0001677  97.8486 226.3963 15.33397038    12

Verfolge STARLINK-36816 in Echtzeit mit AllMySat

Download on the App Store